HVN159 VVTS-WSSS

Flight info

Callsign HVN159
Flight time N/A
Altitude 36000
Route NIXIV5A NIXIV L643 CN L642 ESPOB/N0456F380 Q801 ESBUM/N0455F370 Q802 ELALO ELALO1B
Aircraft A21N/M-SDE3FGHIRWY/LB1

Departure

Time 2026-05-06 13:58
Airport Tan Son Nhat International Airport (VVTS)

Arrival

Time N/A
Airport Singapore Changi Airport (WSSS)
Time Latitude Longitude Altitude Speed Heading
2026-05-06 13:27 16.03735 108.20392 42 ft 0 kts 261°
2026-05-06 13:28 10.81325 106.66119 32 ft 0 kts 95°
2026-05-06 13:45 10.81326 106.66105 32 ft 2 kts 95°
2026-05-06 13:45 10.81329 106.66075 32 ft 2 kts 95°
2026-05-06 13:45 10.81330 106.66065 32 ft 2 kts 94°
2026-05-06 13:46 10.81328 106.66050 32 ft 2 kts 70°
2026-05-06 13:46 10.81321 106.66036 32 ft 2 kts 52°
2026-05-06 13:46 10.81311 106.66026 32 ft 2 kts 34°
2026-05-06 13:46 10.81297 106.66019 32 ft 2 kts 15°
2026-05-06 13:47 10.81288 106.66017 32 ft 1 kts
2026-05-06 13:47 10.81284 106.66016 33 ft 0 kts
2026-05-06 13:49 10.81296 106.66018 32 ft 3 kts
2026-05-06 13:49 10.81338 106.66022 32 ft 8 kts
2026-05-06 13:49 10.81408 106.66029 30 ft 12 kts
2026-05-06 13:50 10.81508 106.66039 28 ft 16 kts
2026-05-06 13:50 10.81619 106.66048 28 ft 15 kts
2026-05-06 13:50 10.81728 106.66058 28 ft 15 kts
2026-05-06 13:50 10.81834 106.66070 28 ft 15 kts 15°
2026-05-06 13:51 10.81910 106.66134 28 ft 14 kts 63°
2026-05-06 13:51 10.81931 106.66231 28 ft 13 kts 84°
2026-05-06 13:51 10.81953 106.66316 28 ft 13 kts 69°
2026-05-06 13:52 10.81974 106.66370 28 ft 10 kts 69°
2026-05-06 13:52 10.82003 106.66446 28 ft 12 kts 69°
2026-05-06 13:52 10.82036 106.66531 29 ft 13 kts 68°
2026-05-06 13:52 10.82071 106.66625 30 ft 14 kts 70°
2026-05-06 13:53 10.82107 106.66724 32 ft 14 kts 69°
2026-05-06 13:53 10.82146 106.66826 32 ft 16 kts 68°
2026-05-06 13:53 10.82182 106.66920 33 ft 11 kts 69°
2026-05-06 13:53 10.82206 106.66982 34 ft 5 kts 63°
2026-05-06 13:54 10.82212 106.66993 34 ft 0 kts 57°
2026-05-06 13:54 10.82219 106.67003 34 ft 2 kts 52°
2026-05-06 13:54 10.82224 106.67008 34 ft 1 kts 47°
2026-05-06 13:54 10.82236 106.67017 34 ft 3 kts 27°
2026-05-06 13:55 10.82264 106.67014 33 ft 5 kts 332°
2026-05-06 13:55 10.82277 106.67006 33 ft 0 kts 330°
2026-05-06 13:55 10.82281 106.67004 33 ft 1 kts 330°
2026-05-06 13:56 10.82304 106.66989 32 ft 6 kts 324°
2026-05-06 13:56 10.82331 106.66941 32 ft 9 kts 284°
2026-05-06 13:56 10.82336 106.66865 32 ft 11 kts 256°
2026-05-06 13:56 10.82321 106.66821 32 ft 0 kts 249°
2026-05-06 13:57 10.82318 106.66813 32 ft 10 kts 249°
2026-05-06 13:57 10.82183 106.66454 32 ft 95 kts 249°
2026-05-06 13:57 10.81854 106.65587 30 ft 164 kts 248°
2026-05-06 13:57 10.81394 106.64385 286 ft 197 kts 249°
2026-05-06 13:58 10.80877 106.63005 691 ft 224 kts 250°
2026-05-06 13:58 10.80279 106.61422 1021 ft 256 kts 250°
2026-05-06 13:58 10.79617 106.59705 1866 ft 264 kts 250°
2026-05-06 13:58 10.78949 106.57978 2897 ft 265 kts 250°
2026-05-06 13:59 10.78260 106.56231 3747 ft 273 kts 245°
2026-05-06 13:59 10.77099 106.54707 4632 ft 280 kts 218°
2026-05-06 13:59 10.75323 106.53918 5573 ft 283 kts 189°
2026-05-06 13:59 10.73352 106.53994 6500 ft 286 kts 172°
2026-05-06 14:00 10.71404 106.54325 7358 ft 291 kts 171°
2026-05-06 14:00 10.69413 106.54681 8174 ft 294 kts 171°
2026-05-06 14:00 10.67391 106.55029 8716 ft 297 kts 172°
2026-05-06 14:00 10.65360 106.55363 8898 ft 298 kts 172°
2026-05-06 14:01 10.63307 106.55692 8869 ft 297 kts 172°
2026-05-06 14:01 10.61293 106.56010 8858 ft 296 kts 172°
2026-05-06 14:01 10.59242 106.56331 8853 ft 296 kts 172°
2026-05-06 14:01 10.57209 106.56649 8851 ft 296 kts 172°
2026-05-06 14:02 10.55191 106.56965 8850 ft 296 kts 172°
2026-05-06 14:02 10.53151 106.57284 8849 ft 296 kts 172°
2026-05-06 14:02 10.51136 106.57597 8850 ft 297 kts 172°
2026-05-06 14:02 10.49104 106.57916 8850 ft 296 kts 172°
2026-05-06 14:03 10.47035 106.58240 9046 ft 303 kts 173°
2026-05-06 14:03 10.44947 106.58567 9826 ft 304 kts 173°
2026-05-06 14:03 10.42839 106.58897 10457 ft 314 kts 173°
2026-05-06 14:03 10.40637 106.59241 10798 ft 334 kts 173°
2026-05-06 14:04 10.38294 106.59605 11324 ft 348 kts 173°
2026-05-06 14:04 10.35914 106.59976 12278 ft 347 kts 173°
2026-05-06 14:04 10.33532 106.60348 13089 ft 349 kts 173°
2026-05-06 14:04 10.31128 106.60720 13609 ft 351 kts 173°
2026-05-06 14:05 10.28709 106.61094 13840 ft 352 kts 173°
2026-05-06 14:05 10.26287 106.61469 13845 ft 351 kts 173°
2026-05-06 14:05 10.23862 106.61845 13847 ft 351 kts 173°
2026-05-06 14:05 10.21475 106.62264 13848 ft 351 kts 170°
2026-05-06 14:06 10.19092 106.62849 13929 ft 356 kts 167°
2026-05-06 14:06 10.16674 106.63519 14540 ft 361 kts 167°
2026-05-06 14:06 10.14238 106.64020 15447 ft 359 kts 174°